ETD9R5 OMAA-YSSY

Flight info

Callsign ETD9R5
Flight time N/A
Altitude 33000
Route KANIP N318 TOLDA P570 EMURU M300 VASTU P895 BIKOK M641 KAT N640 EKASU/N0502F350 N640 ELATI DCT 06S094E DCT EPGUP DCT EMVAS DCT 17S109E/N0491F370 DCT KA DCT 22S120E DCT NONAX DCT UPRUN DCT 2700S13330E/N0480F390 29S138E DCT MEMOV G222 VAGPO Y71 VELGI Y105 TARAL Y59 RIVET
Aircraft A35K/H-SDE2E3GHIJ3J4J5LM1ORWXY/LB1D1

Departure

Time 2026-05-04 22:55
Airport Zayed International Airport (OMAA)

Arrival

Time N/A
Airport Sydney Kingsford Smith International Airport (YSSY)
Time Latitude Longitude Altitude Speed Heading
2026-05-04 21:23 24.44917 54.64399 81 ft 0 kts 258°
2026-05-04 22:37 24.44919 54.64411 86 ft 3 kts 258°
2026-05-04 22:37 24.44923 54.64432 82 ft 3 kts 258°
2026-05-04 22:38 24.44926 54.64451 86 ft 3 kts 259°
2026-05-04 22:38 24.44930 54.64472 85 ft 3 kts 262°
2026-05-04 22:38 24.44932 54.64494 86 ft 3 kts 266°
2026-05-04 22:38 24.44933 54.64517 84 ft 3 kts 270°
2026-05-04 22:39 24.44933 54.64539 85 ft 3 kts 274°
2026-05-04 22:39 24.44931 54.64561 85 ft 3 kts 277°
2026-05-04 22:39 24.44928 54.64582 86 ft 3 kts 282°
2026-05-04 22:39 24.44923 54.64604 86 ft 3 kts 286°
2026-05-04 22:40 24.44917 54.64625 84 ft 3 kts 290°
2026-05-04 22:40 24.44912 54.64639 86 ft 0 kts 292°
2026-05-04 22:43 24.44915 54.64630 86 ft 4 kts 291°
2026-05-04 22:43 24.44923 54.64594 84 ft 8 kts 278°
2026-05-04 22:43 24.44908 54.64528 82 ft 9 kts 230°
2026-05-04 22:43 24.44850 54.64509 85 ft 9 kts 173°
2026-05-04 22:44 24.44785 54.64531 87 ft 10 kts 161°
2026-05-04 22:44 24.44716 54.64566 87 ft 11 kts 149°
2026-05-04 22:44 24.44653 54.64625 83 ft 12 kts 132°
2026-05-04 22:44 24.44604 54.64692 87 ft 8 kts 128°
2026-05-04 22:45 24.44589 54.64753 86 ft 10 kts 76°
2026-05-04 22:45 24.44547 54.64901 85 ft 12 kts 127°
2026-05-04 22:45 24.44491 54.64980 87 ft 14 kts 128°
2026-05-04 22:46 24.44429 54.65068 88 ft 14 kts 128°
2026-05-04 22:46 24.44377 54.65142 86 ft 6 kts 128°
2026-05-04 22:46 24.44337 54.65163 87 ft 8 kts 175°
2026-05-04 22:46 24.44274 54.65135 86 ft 13 kts 212°
2026-05-04 22:47 24.44191 54.65067 86 ft 17 kts 217°
2026-05-04 22:47 24.44085 54.64977 86 ft 21 kts 218°
2026-05-04 22:47 24.43970 54.64880 86 ft 16 kts 218°
2026-05-04 22:47 24.43898 54.64822 86 ft 13 kts 204°
2026-05-04 22:48 24.43825 54.64857 87 ft 13 kts 130°
2026-05-04 22:48 24.43766 54.64938 87 ft 14 kts 129°
2026-05-04 22:48 24.43702 54.65027 86 ft 15 kts 128°
2026-05-04 22:48 24.43633 54.65123 87 ft 17 kts 128°
2026-05-04 22:49 24.43553 54.65238 87 ft 21 kts 127°
2026-05-04 22:49 24.43459 54.65370 86 ft 23 kts 128°
2026-05-04 22:49 24.43359 54.65509 87 ft 24 kts 127°
2026-05-04 22:49 24.43257 54.65654 87 ft 24 kts 128°
2026-05-04 22:50 24.43188 54.65752 86 ft 25 kts 128°
2026-05-04 22:50 24.43079 54.65902 87 ft 25 kts 128°
2026-05-04 22:50 24.42972 54.66053 87 ft 25 kts 127°
2026-05-04 22:50 24.42867 54.66202 87 ft 24 kts 128°
2026-05-04 22:51 24.42764 54.66347 86 ft 24 kts 127°
2026-05-04 22:51 24.42662 54.66492 87 ft 24 kts 128°
2026-05-04 22:51 24.42561 54.66634 87 ft 24 kts 127°
2026-05-04 22:51 24.42494 54.66728 87 ft 9 kts 128°
2026-05-04 22:52 24.42454 54.66785 87 ft 10 kts 128°
2026-05-04 22:52 24.42411 54.66844 86 ft 9 kts 133°
2026-05-04 22:52 24.42357 54.66851 86 ft 8 kts 198°
2026-05-04 22:52 24.42306 54.66816 86 ft 9 kts 219°
2026-05-04 22:53 24.42252 54.66771 85 ft 11 kts 217°
2026-05-04 22:53 24.42199 54.66716 85 ft 9 kts 250°
2026-05-04 22:53 24.42215 54.66654 86 ft 8 kts 303°
2026-05-04 22:53 24.42260 54.66589 86 ft 19 kts 307°
2026-05-04 22:54 24.42482 54.66277 88 ft 85 kts 309°
2026-05-04 22:54 24.42972 54.65588 87 ft 143 kts 308°
2026-05-04 22:54 24.43691 54.64571 94 ft 193 kts 307°
2026-05-04 22:54 24.44464 54.63468 675 ft 189 kts 307°
2026-05-04 22:55 24.45251 54.62351 1450 ft 183 kts 309°
2026-05-04 22:55 24.46051 54.61218 1706 ft 193 kts 309°
2026-05-04 22:55 24.46906 54.60020 1891 ft 205 kts 309°
2026-05-04 22:55 24.47814 54.58755 2095 ft 216 kts 309°
2026-05-04 22:56 24.48956 54.57621 2275 ft 228 kts 328°
2026-05-04 22:56 24.50501 54.57081 2378 ft 244 kts 358°
2026-05-04 22:56 24.52163 54.57614 2587 ft 260 kts 33°
2026-05-04 22:56 24.53329 54.59162 2963 ft 269 kts 59°
2026-05-04 22:57 24.54360 54.60875 3379 ft 271 kts 51°
2026-05-04 22:57 24.55423 54.62599 3910 ft 273 kts 56°
2026-05-04 22:57 24.56364 54.64412 4433 ft 274 kts 60°
2026-05-04 22:57 24.57158 54.66321 4939 ft 276 kts 66°
2026-05-04 22:58 24.57768 54.68323 5442 ft 277 kts 72°
2026-05-04 22:58 24.58329 54.70346 5934 ft 277 kts 67°
2026-05-04 22:58 24.59033 54.72314 6399 ft 277 kts 66°
2026-05-04 22:58 24.59605 54.74355 6801 ft 284 kts 79°
2026-05-04 22:59 24.59532 54.76537 7192 ft 292 kts 101°
2026-05-04 22:59 24.58628 54.78551 7569 ft 300 kts 129°
2026-05-04 22:59 24.57162 54.80201 8013 ft 304 kts 135°
2026-05-04 22:59 24.55608 54.81795 8473 ft 306 kts 135°
2026-05-04 23:00 24.54051 54.83406 8936 ft 308 kts 135°
2026-05-04 23:00 24.52487 54.85032 9398 ft 311 kts 135°
2026-05-04 23:00 24.50918 54.86671 9860 ft 313 kts 135°
2026-05-04 23:00 24.49339 54.88328 10232 ft 318 kts 135°
2026-05-04 23:01 24.47720 54.90031 10446 ft 330 kts 135°
2026-05-04 23:01 24.46034 54.91806 10658 ft 341 kts 135°
2026-05-04 23:01 24.44297 54.93635 10869 ft 352 kts 135°
2026-05-04 23:01 24.42506 54.95521 11059 ft 362 kts 135°
2026-05-04 23:02 24.40663 54.97461 11269 ft 372 kts 135°
2026-05-04 23:02 24.38771 54.99451 11443 ft 381 kts 135°
2026-05-04 23:02 24.36830 55.01492 11615 ft 390 kts 136°
2026-05-04 23:02 24.34851 55.03572 11791 ft 398 kts 136°
2026-05-04 23:03 24.32878 55.05721 12036 ft 402 kts 131°
2026-05-04 23:03 24.31257 55.08228 12344 ft 404 kts 120°
2026-05-04 23:03 24.29863 55.10905 12688 ft 406 kts 118°
2026-05-04 23:03 24.28489 55.13616 13018 ft 407 kts 118°
2026-05-04 23:04 24.27106 55.16336 13369 ft 409 kts 119°
2026-05-04 23:04 24.25735 55.19021 13691 ft 411 kts 119°
2026-05-04 23:04 24.24334 55.21758 13985 ft 413 kts 119°
2026-05-04 23:04 24.22925 55.24503 14286 ft 414 kts 119°
2026-05-04 23:05 24.21507 55.27264 14585 ft 416 kts 119°
2026-05-04 23:05 24.20080 55.30037 14893 ft 418 kts 119°
2026-05-04 23:05 24.18650 55.32816 15203 ft 420 kts 119°